| time (UTC) | temp F | wind direction | speed MPH | gust MPH | rain 1hr in | rain 24hr in | rain mn in | humidity % | barometer mb |
| 20260507042703 | 32 | 98 | 0.0 | 1.0 | 0.00 | 0.27 | 0.27 | 86 | 1020.0 |
| 20260507041803 | 33 | 0 | 0.0 | 0.0 | 0.00 | 0.27 | 0.27 | 86 | 1019.8 |
| 20260507040903 | 33 | 98 | 0.0 | 1.0 | 0.00 | 0.27 | 0.27 | 86 | 1019.9 |
| 20260507040003 | 33 | 98 | 0.0 | 2.0 | 0.00 | 0.27 | 0.27 | 86 | 1019.8 |
| 20260507035403 | 34 | 98 | 0.0 | 2.0 | 0.00 | 0.27 | 0.27 | 86 | 1019.7 |
| 20260507034503 | 34 | 98 | 0.0 | 2.0 | 0.00 | 0.27 | 0.27 | 86 | 1019.9 |
| 20260507033603 | 34 | 97 | 0.0 | 3.0 | 0.00 | 0.27 | 0.27 | 86 | 1019.7 |
| 20260507032703 | 34 | 95 | 0.0 | 3.0 | 0.00 | 0.27 | 0.27 | 86 | 1019.7 |
| 20260507031803 | 34 | 100 | 1.0 | 6.0 | 0.00 | 0.27 | 0.27 | 85 | 1019.6 |
| 20260507031117 | 34 | 103 | 1.0 | 4.0 | 0.00 | 0.27 | 0.27 | 84 | 1019.5 |
| 20260507030216 | 35 | 102 | 1.0 | 3.0 | 0.00 | 0.27 | 0.27 | 83 | 1019.4 |
| 20260507025619 | 35 | 101 | 1.0 | 2.0 | 0.00 | 0.27 | 0.27 | 82 | 1019.3 |
| 20260507024503 | 35 | 100 | 0.0 | 2.0 | 0.00 | 0.28 | 0.27 | 81 | 1019.3 |
| 20260507023603 | 35 | 115 | 0.0 | 2.0 | 0.00 | 0.28 | 0.27 | 81 | 1019.4 |
| 20260507022703 | 36 | 115 | 0.0 | 2.0 | 0.00 | 0.29 | 0.27 | 80 | 1019.2 |
| 20260507021803 | 36 | 129 | 0.0 | 2.0 | 0.00 | 0.29 | 0.27 | 79 | 1019.2 |
| 20260507020903 | 36 | 127 | 1.0 | 3.0 | 0.00 | 0.29 | 0.27 | 78 | 1019.2 |
| 20260507020003 | 37 | 123 | 1.0 | 3.0 | 0.00 | 0.29 | 0.27 | 77 | 1019.2 |
| 20260507015403 | 37 | 119 | 1.0 | 2.0 | 0.00 | 0.29 | 0.27 | 75 | 1019.2 |
| 20260507014718 | 38 | 112 | 1.0 | 4.0 | 0.00 | 0.29 | 0.27 | 74 | 1019.2 |
| 20260507013603 | 39 | 142 | 1.0 | 3.0 | 0.00 | 0.29 | 0.27 | 73 | 1019.3 |
| 20260507012703 | 39 | 154 | 1.0 | 2.0 | 0.00 | 0.30 | 0.27 | 73 | 1019.3 |
| 20260507011803 | 39 | 160 | 1.0 | 4.0 | 0.00 | 0.30 | 0.27 | 73 | 1019.1 |
| 20260507010003 | 39 | 140 | 1.0 | 6.0 | 0.00 | 0.30 | 0.27 | 71 | 1019.2 |
| 20260507005403 | 39 | 119 | 1.0 | 6.0 | 0.00 | 0.30 | 0.27 | 72 | 1019.1 |
| 20260507004503 | 40 | 147 | 1.0 | 3.0 | 0.00 | 0.30 | 0.27 | 70 | 1019.2 |
| 20260507003603 | 40 | 137 | 1.0 | 3.0 | 0.00 | 0.30 | 0.27 | 70 | 1019.0 |
| 20260507002703 | 40 | 123 | 1.0 | 6.0 | 0.00 | 0.30 | 0.27 | 70 | 1019.0 |
| 20260507001803 | 41 | 139 | 1.0 | 3.0 | 0.00 | 0.30 | 0.27 | 70 | 1018.9 |
| 20260507000903 | 41 | 120 | 1.0 | 4.0 | 0.00 | 0.30 | 0.27 | 69 | 1018.9 |
| 20260507000003 | 42 | 84 | 1.0 | 4.0 | 0.00 | 0.30 | 0.27 | 69 | 1019.0 |
| 20260506235403 | 42 | 212 | 1.0 | 2.0 | 0.00 | 0.30 | 0.27 | 71 | 1018.8 |
| 20260506234503 | 42 | 127 | 1.0 | 3.0 | 0.00 | 0.30 | 0.27 | 71 | 1019.1 |
| 20260506233817 | 42 | 103 | 1.0 | 6.0 | 0.00 | 0.30 | 0.27 | 72 | 1019.2 |
| 20260506232703 | 42 | 223 | 1.0 | 3.0 | 0.00 | 0.30 | 0.27 | 76 | 1019.1 |
| 20260506231803 | 41 | 195 | 1.0 | 3.0 | 0.00 | 0.31 | 0.27 | 76 | 1019.1 |
| 20260506230903 | 40 | 150 | 1.0 | 4.0 | 0.00 | 0.31 | 0.27 | 76 | 1019.1 |
| 20260506230003 | 40 | 178 | 1.0 | 4.0 | 0.00 | 0.31 | 0.27 | 77 | 1019.1 |
| 20260506225403 | 39 | 194 | 0.0 | 2.0 | 0.00 | 0.32 | 0.27 | 77 | 1019.0 |
| 20260506224503 | 39 | 222 | 0.0 | 2.0 | 0.00 | 0.32 | 0.27 | 77 | 1019.0 |
| 20260506223603 | 39 | 190 | 1.0 | 2.0 | 0.00 | 0.32 | 0.27 | 77 | 1018.9 |
| 20260506222703 | 38 | 209 | 1.0 | 2.0 | 0.00 | 0.32 | 0.27 | 78 | 1019.0 |
| 20260506222019 | 38 | 209 | 0.0 | 2.0 | 0.00 | 0.32 | 0.27 | 78 | 1019.0 |
| 20260506220903 | 38 | 227 | 0.0 | 2.0 | 0.00 | 0.32 | 0.27 | 77 | 1019.0 |
| 20260506220218 | 38 | 275 | 0.0 | 2.0 | 0.00 | 0.32 | 0.27 | 75 | 1019.2 |
| 20260506215403 | 38 | 291 | 0.0 | 1.0 | 0.00 | 0.32 | 0.27 | 75 | 1019.1 |
| 20260506214503 | 38 | 280 | 1.0 | 3.0 | 0.00 | 0.32 | 0.27 | 74 | 1019.1 |
| 20260506213816 | 38 | 276 | 2.0 | 6.0 | 0.00 | 0.32 | 0.27 | 76 | 1019.0 |
| 20260506212915 | 38 | 284 | 1.0 | 6.0 | 0.01 | 0.32 | 0.27 | 75 | 1019.1 |
| 20260506212019 | 38 | 282 | 1.0 | 4.0 | 0.01 | 0.32 | 0.27 | 78 | 1019.1 |
| 20260506211118 | 38 | 262 | 1.0 | 4.0 | 0.01 | 0.32 | 0.27 | 76 | 1019.0 |
| 20260506210003 | 38 | 311 | 0.0 | 3.0 | 0.02 | 0.33 | 0.27 | 81 | 1019.2 |
| 20260506205403 | 38 | 302 | 0.0 | 3.0 | 0.03 | 0.33 | 0.27 | 80 | 1019.0 |
| 20260506204503 | 38 | 82 | 1.0 | 4.0 | 0.05 | 0.33 | 0.27 | 84 | 1019.1 |
| 20260506203603 | 37 | 3 | 1.0 | 4.0 | 0.05 | 0.33 | 0.27 | 84 | 1019.2 |
| 20260506202703 | 37 | 11 | 1.0 | 3.0 | 0.04 | 0.32 | 0.26 | 83 | 1019.4 |
| 20260506201803 | 37 | 296 | 1.0 | 6.0 | 0.04 | 0.32 | 0.26 | 83 | 1019.4 |
| 20260506200903 | 37 | 14 | 1.0 | 4.0 | 0.05 | 0.32 | 0.26 | 86 | 1019.3 |
| 20260506200217 | 37 | 65 | 1.0 | 3.0 | 0.05 | 0.31 | 0.25 | 87 | 1019.2 |
| 20260506195617 | 36 | 53 | 0.0 | 2.0 | 0.05 | 0.30 | 0.25 | 88 | 1019.4 |
| 20260506194503 | 36 | 62 | 1.0 | 3.0 | 0.04 | 0.28 | 0.22 | 89 | 1019.2 |
| 20260506193603 | 35 | 54 | 1.0 | 2.0 | 0.06 | 0.28 | 0.22 | 88 | 1019.2 |
| 20260506192919 | 35 | 56 | 1.0 | 3.0 | 0.07 | 0.28 | 0.22 | 87 | 1019.1 |
| 20260506191803 | 36 | 37 | 1.0 | 4.0 | 0.09 | 0.28 | 0.22 | 88 | 1019.3 |
| 20260506190903 | 36 | 348 | 1.0 | 4.0 | 0.09 | 0.27 | 0.21 | 87 | 1019.3 |
| 20260506190217 | 36 | 349 | 1.0 | 4.0 | 0.09 | 0.26 | 0.20 | 88 | 1019.2 |
| 20260506185403 | 35 | 320 | 1.0 | 3.0 | 0.09 | 0.25 | 0.19 | 90 | 1019.1 |
| 20260506184503 | 35 | 296 | 2.0 | 7.0 | 0.08 | 0.25 | 0.18 | 89 | 1019.4 |
| 20260506183819 | 34 | 294 | 2.0 | 7.0 | 0.07 | 0.23 | 0.16 | 88 | 1019.4 |
| 20260506182918 | 34 | 291 | 3.0 | 6.0 | 0.06 | 0.22 | 0.15 | 90 | 1019.5 |
| 20260506181803 | 34 | 290 | 2.0 | 4.0 | 0.04 | 0.21 | 0.13 | 92 | 1019.7 |
| 20260506181117 | 33 | 293 | 2.0 | 4.0 | 0.04 | 0.20 | 0.12 | 92 | 1019.7 |
| 20260506180216 | 33 | 290 | 1.0 | 6.0 | 0.03 | 0.20 | 0.11 | 91 | 1019.7 |
| 20260506175616 | 32 | 294 | 1.0 | 6.0 | 0.02 | 0.19 | 0.10 | 91 | 1019.6 |
| 20260506174503 | 32 | 296 | 1.0 | 4.0 | 0.02 | 0.19 | 0.10 | 91 | 1019.5 |
| 20260506173603 | 32 | 311 | 0.0 | 2.0 | 0.02 | 0.18 | 0.09 | 91 | 1019.4 |
| 20260506172703 | 32 | 8 | 0.0 | 1.0 | 0.03 | 0.19 | 0.09 | 91 | 1019.4 |
| 20260506171803 | 32 | 288 | 1.0 | 3.0 | 0.03 | 0.20 | 0.09 | 91 | 1019.4 |
| 20260506171117 | 33 | 289 | 1.0 | 3.0 | 0.03 | 0.19 | 0.08 | 90 | 1019.2 |
| 20260506170003 | 33 | 296 | 1.0 | 4.0 | 0.04 | 0.19 | 0.08 | 90 | 1019.5 |
| 20260506165403 | 33 | 289 | 1.0 | 4.0 | 0.05 | 0.19 | 0.08 | 90 | 1019.3 |
| 20260506164503 | 33 | 301 | 1.0 | 6.0 | 0.05 | 0.19 | 0.08 | 89 | 1019.3 |
| 20260506163818 | 33 | 288 | 1.0 | 7.0 | 0.05 | 0.18 | 0.07 | 89 | 1019.0 |
| 20260506162917 | 33 | 335 | 1.0 | 3.0 | 0.05 | 0.18 | 0.07 | 89 | 1019.0 |
| 20260506162017 | 33 | 20 | 2.0 | 6.0 | 0.05 | 0.17 | 0.06 | 88 | 1018.9 |
| 20260506160903 | 34 | 283 | 1.0 | 4.0 | 0.04 | 0.16 | 0.05 | 88 | 1018.8 |
| 20260506160003 | 33 | 86 | 1.0 | 3.0 | 0.03 | 0.15 | 0.04 | 89 | 1018.6 |
| 20260506155403 | 33 | 318 | 1.0 | 4.0 | 0.02 | 0.14 | 0.03 | 88 | 1018.6 |
| 20260506154718 | 33 | 305 | 1.0 | 4.0 | 0.02 | 0.14 | 0.03 | 87 | 1018.4 |
| 20260506153603 | 33 | 54 | 1.0 | 5.0 | 0.02 | 0.13 | 0.02 | 88 | 1018.4 |
| 20260506152703 | 33 | 58 | 1.0 | 4.0 | 0.02 | 0.13 | 0.02 | 88 | 1018.3 |
| 20260506151803 | 33 | 289 | 0.0 | 2.0 | 0.01 | 0.12 | 0.01 | 89 | 1018.3 |
| 20260506151116 | 32 | 47 | 0.0 | 3.0 | 0.01 | 0.12 | 0.01 | 89 | 1018.2 |
| 20260506150003 | 32 | 25 | 1.0 | 3.0 | 0.01 | 0.12 | 0.01 | 90 | 1018.2 |
| 20260506145403 | 32 | 44 | 1.0 | 3.0 | 0.01 | 0.12 | 0.01 | 89 | 1018.3 |
| 20260506144503 | 32 | 53 | 1.0 | 3.0 | 0.00 | 0.11 | 0.00 | 90 | 1018.2 |
| 20260506143603 | 32 | 276 | 1.0 | 4.0 | 0.00 | 0.11 | 0.00 | 90 | 1018.2 |
| 20260506142703 | 32 | 300 | 0.0 | 3.0 | 0.00 | 0.11 | 0.00 | 91 | 1018.1 |
| 20260506141803 | 32 | 286 | 1.0 | 3.0 | 0.00 | 0.11 | 0.00 | 92 | 1017.9 |
| 20260506140903 | 32 | 309 | 1.0 | 3.0 | 0.00 | 0.11 | 0.00 | 92 | 1018.2 |
| 20260506140003 | 32 | 20 | 0.0 | 3.0 | 0.00 | 0.11 | 0.00 | 92 | 1017.9 |
| 20260506135403 | 31 | 325 | 0.0 | 1.0 | 0.00 | 0.11 | 0.00 | 93 | 1017.7 |
| 20260506134503 | 31 | 320 | 0.0 | 2.0 | 0.00 | 0.11 | 0.00 | 92 | 1017.9 |
| 20260506133603 | 31 | 336 | 0.0 | 2.0 | 0.00 | 0.11 | 0.00 | 92 | 1017.7 |
| 20260506132703 | 31 | 62 | 0.0 | 1.0 | 0.00 | 0.11 | 0.00 | 92 | 1017.7 |
| 20260506131803 | 31 | 94 | 0.0 | 1.0 | 0.00 | 0.11 | 0.00 | 92 | 1017.5 |
| 20260506130903 | 31 | 36 | 0.0 | 1.0 | 0.00 | 0.11 | 0.00 | 92 | 1017.4 |
| 20260506130218 | 30 | 329 | 0.0 | 2.0 | 0.00 | 0.11 | 0.00 | 92 | 1017.2 |
| 20260506125403 | 31 | 290 | 1.0 | 3.0 | 0.00 | 0.11 | 0.00 | 92 | 1017.1 |
| 20260506124503 | 31 | 294 | 1.0 | 3.0 | 0.00 | 0.11 | 0.00 | 92 | 1016.9 |
| 20260506123603 | 31 | 292 | 0.0 | 2.0 | 0.00 | 0.11 | 0.00 | 92 | 1016.6 |
| 20260506122703 | 31 | 303 | 0.0 | 2.0 | 0.00 | 0.11 | 0.00 | 92 | 1016.4 |
| 20260506121803 | 31 | 330 | 0.0 | 2.0 | 0.00 | 0.11 | 0.00 | 92 | 1016.2 |
| 20260506120903 | 31 | 297 | 1.0 | 3.0 | 0.00 | 0.11 | 0.00 | 92 | 1016.2 |
| 20260506120003 | 31 | 291 | 1.0 | 4.0 | 0.00 | 0.11 | 0.00 | 92 | 1016.0 |
| 20260506115403 | 31 | 293 | 1.0 | 4.0 | 0.00 | 0.11 | 0.00 | 92 | 1016.1 |
| 20260506114503 | 31 | 316 | 1.0 | 2.0 | 0.00 | 0.11 | 0.00 | 91 | 1016.1 |
| 20260506113603 | 31 | 297 | 1.0 | 6.0 | 0.00 | 0.11 | 0.00 | 91 | 1015.9 |
| 20260506112918 | 31 | 304 | 2.0 | 6.0 | 0.00 | 0.11 | 0.00 | 92 | 1015.8 |
| 20260506111803 | 31 | 304 | 1.0 | 3.0 | 0.00 | 0.11 | 0.00 | 92 | 1015.9 |
| 20260506110903 | 31 | 302 | 1.0 | 2.0 | 0.00 | 0.11 | 0.00 | 92 | 1015.9 |
| 20260506110216 | 31 | 310 | 1.0 | 2.0 | 0.00 | 0.11 | 0.00 | 91 | 1015.8 |
| 20260506105403 | 31 | 313 | 1.0 | 2.0 | 0.00 | 0.11 | 0.00 | 91 | 1015.7 |
| 20260506104503 | 32 | 306 | 0.0 | 2.0 | 0.00 | 0.11 | 0.00 | 92 | 1015.8 |
| 20260506103603 | 32 | 308 | 1.0 | 3.0 | 0.00 | 0.11 | 0.00 | 91 | 1015.7 |
| 20260506102703 | 32 | 306 | 1.0 | 3.0 | 0.00 | 0.11 | 0.00 | 91 | 1015.6 |
| 20260506101803 | 32 | 298 | 1.0 | 3.0 | 0.00 | 0.11 | 0.00 | 91 | 1015.5 |
| 20260506100903 | 32 | 296 | 1.0 | 3.0 | 0.00 | 0.11 | 0.00 | 91 | 1015.6 |
| 20260506100003 | 32 | 310 | 1.0 | 4.0 | 0.00 | 0.11 | 0.00 | 90 | 1015.7 |
| 20260506095403 | 32 | 302 | 1.0 | 4.0 | 0.00 | 0.11 | 0.00 | 90 | 1015.7 |
| 20260506094503 | 32 | 311 | 1.0 | 4.0 | 0.00 | 0.11 | 0.00 | 89 | 1015.6 |
| 20260506093603 | 33 | 305 | 2.0 | 6.0 | 0.00 | 0.11 | 0.00 | 88 | 1015.6 |
| 20260506092703 | 33 | 296 | 3.0 | 9.0 | 0.00 | 0.11 | 0.00 | 87 | 1015.5 |
| 20260506091803 | 33 | 289 | 2.0 | 7.0 | 0.00 | 0.11 | 0.00 | 86 | 1015.4 |
| 20260506091115 | 33 | 293 | 2.0 | 8.0 | 0.00 | 0.11 | 0.00 | 86 | 1015.3 |
| 20260506090219 | 33 | 302 | 2.0 | 5.0 | 0.00 | 0.11 | 0.00 | 85 | 1015.2 |
| 20260506085618 | 34 | 299 | 3.0 | 9.0 | 0.00 | 0.11 | 0.00 | 85 | 1015.3 |
| 20260506084503 | 34 | 286 | 2.0 | 7.0 | 0.00 | 0.11 | 0.00 | 85 | 1015.4 |
| 20260506083817 | 34 | 296 | 3.0 | 11.0 | 0.00 | 0.11 | 0.00 | 85 | 1015.3 |
| 20260506082703 | 34 | 302 | 3.0 | 9.0 | 0.00 | 0.11 | 0.00 | 85 | 1015.2 |
| 20260506081803 | 34 | 302 | 3.0 | 8.0 | 0.00 | 0.11 | 0.00 | 85 | 1015.0 |
| 20260506080903 | 33 | 294 | 3.0 | 10.0 | 0.00 | 0.11 | 0.00 | 86 | 1014.8 |
| 20260506080219 | 33 | 296 | 3.0 | 10.0 | 0.00 | 0.11 | 0.00 | 86 | 1014.8 |
| 20260506072703 | 33 | 290 | 3.0 | 8.0 | 0.00 | 0.11 | 0.00 | 88 | 1015.2 |
| 20260506071803 | 33 | 300 | 3.0 | 8.0 | 0.00 | 0.11 | 0.00 | 88 | 1015.1 |
| 20260506070903 | 33 | 301 | 2.0 | 10.0 | 0.00 | 0.11 | 0.00 | 88 | 1015.0 |
| 20260506061803 | 33 | 297 | 2.0 | 6.0 | 0.00 | 0.11 | 0.00 | 90 | 1015.0 |
| 20260506060903 | 34 | 293 | 2.0 | 4.0 | 0.00 | 0.11 | 0.00 | 89 | 1015.0 |
| 20260506060218 | 34 | 295 | 2.0 | 4.0 | 0.00 | 0.11 | 0.00 | 89 | 1014.8 |
| 20260506050903 | 34 | 288 | 4.0 | 7.0 | 0.00 | 0.11 | 0.11 | 88 | 1014.7 |
| 20260506044503 | 34 | 293 | 2.0 | 4.0 | 0.00 | 0.11 | 0.11 | 90 | 1014.5 |
| 20260506043603 | 34 | 290 | 1.0 | 3.0 | 0.00 | 0.11 | 0.11 | 90 | 1014.5 |